Previsão horária em Jurkowo

Hoje, 24 Junho, Quinta-feira

Tempo Temperatura Precipitação Vento Pressão Humidade
00:00 +17°C° 0.1 mm 2 m/s 751 mmHg 96%
01:00 +16°C° 0.1 mm 2 m/s 752 mmHg 96%
02:00 +16°C° 0.2 mm 2 m/s 751 mmHg 95%
03:00 +16°C° 0.2 mm 2 m/s 751 mmHg 95%
04:00 +16°C° 0.2 mm 2 m/s 751 mmHg 95%
05:00 +17°C° 0 mm 2 m/s 751 mmHg 90%
06:00 +19°C° 0 mm 3 m/s 751 mmHg 86%
07:00 +20°C° 0 mm 3 m/s 751 mmHg 81%
08:00 +23°C° 0 mm 2 m/s 751 mmHg 76%
09:00 +25°C° 0 mm 2 m/s 751 mmHg 72%
10:00 +27°C° 0 mm 2 m/s 751 mmHg 67%
11:00 +28°C° 0 mm 1 m/s 751 mmHg 64%
12:00 +29°C° 0 mm 1 m/s 750 mmHg 62%
13:00 +30°C° 0 mm 1 m/s 750 mmHg 59%
14:00 +30°C° 0 mm 1 m/s 749 mmHg 59%
15:00 +30°C° 0 mm 1 m/s 749 mmHg 59%
16:00 +30°C° 0 mm 1 m/s 749 mmHg 59%
17:00 +29°C° 0.5 mm 1 m/s 748 mmHg 66%
18:00 +27°C° 0.5 mm 1 m/s 748 mmHg 73%
19:00 +26°C° 0.5 mm 1 m/s 747 mmHg 81%
20:00 +24°C° 2.5 mm 1 m/s 748 mmHg 85%
21:00 +23°C° 2.5 mm 1 m/s 748 mmHg 89%
22:00 +20°C° 2.5 mm 2 m/s 748 mmHg 94%
23:00 +20°C° 0.3 mm 2 m/s 748 mmHg 94%

Amanhã, 25 Junho, Sexta-feira

Tempo Temperatura Precipitação Vento Pressão Humidade
00:00 +19°C° 0.3 mm 2 m/s 748 mmHg 94%
01:00 +19°C° 0.3 mm 2 m/s 747 mmHg 94%
02:00 +19°C° 0 mm 2 m/s 747 mmHg 95%
03:00 +18°C° 0 mm 2 m/s 747 mmHg 95%
04:00 +18°C° 0 mm 2 m/s 747 mmHg 95%
05:00 +20°C° 0 mm 2 m/s 747 mmHg 91%
06:00 +21°C° 0 mm 2 m/s 747 mmHg 86%
07:00 +23°C° 0 mm 2 m/s 747 mmHg 82%
08:00 +24°C° 0 mm 2 m/s 747 mmHg 81%
09:00 +25°C° 0 mm 2 m/s 747 mmHg 80%
10:00 +25°C° 0 mm 2 m/s 747 mmHg 78%
11:00 +25°C° 0.1 mm 3 m/s 748 mmHg 80%
12:00 +24°C° 0.1 mm 3 m/s 748 mmHg 82%
13:00 +22°C° 0.1 mm 4 m/s 748 mmHg 84%
14:00 +22°C° 0.3 mm 4 m/s 748 mmHg 84%
15:00 +22°C° 0.3 mm 4 m/s 748 mmHg 85%
16:00 +21°C° 0.3 mm 4 m/s 748 mmHg 86%
17:00 +20°C° 0 mm 4 m/s 748 mmHg 85%
18:00 +19°C° 0 mm 4 m/s 748 mmHg 85%
19:00 +18°C° 0 mm 4 m/s 748 mmHg 85%
20:00 +17°C° 0 mm 3 m/s 748 mmHg 88%
21:00 +16°C° 0 mm 3 m/s 749 mmHg 92%
22:00 +14°C° 0 mm 3 m/s 749 mmHg 95%
23:00 +14°C° 0 mm 3 m/s 749 mmHg 96%

Depois de amanhã, 26 Junho, Sábado

Tempo Temperatura Precipitação Vento Pressão Humidade
00:00 +13°C° 0 mm 3 m/s 749 mmHg 97%
01:00 +14°C° 0 mm 2 m/s 750 mmHg 98%
02:00 +14°C° 0 mm 2 m/s 750 mmHg 97%
03:00 +14°C° 0 mm 2 m/s 750 mmHg 97%
04:00 +14°C° 0 mm 2 m/s 750 mmHg 97%
05:00 +14°C° 0 mm 3 m/s 750 mmHg 89%
06:00 +17°C° 0 mm 3 m/s 750 mmHg 81%
07:00 +18°C° 0 mm 4 m/s 750 mmHg 74%
08:00 +20°C° 0 mm 4 m/s 751 mmHg 69%
09:00 +21°C° 0 mm 4 m/s 751 mmHg 65%
10:00 +22°C° 0 mm 3 m/s 751 mmHg 60%
11:00 +24°C° 0 mm 3 m/s 751 mmHg 58%
12:00 +24°C° 0 mm 3 m/s 751 mmHg 56%
13:00 +25°C° 0 mm 3 m/s 751 mmHg 54%
14:00 +24°C° 0 mm 3 m/s 751 mmHg 56%
15:00 +24°C° 0 mm 3 m/s 751 mmHg 58%
16:00 +24°C° 0 mm 2 m/s 751 mmHg 61%
17:00 +23°C° 0 mm 2 m/s 751 mmHg 66%
18:00 +20°C° 0 mm 2 m/s 751 mmHg 72%
19:00 +19°C° 0 mm 2 m/s 751 mmHg 77%
20:00 +18°C° 0 mm 2 m/s 751 mmHg 80%
21:00 +16°C° 0 mm 2 m/s 751 mmHg 84%
22:00 +15°C° 0 mm 2 m/s 751 mmHg 87%
23:00 +15°C° 0 mm 1 m/s 751 mmHg 89%

27 Junho, Domingo

Tempo Temperatura Precipitação Vento Pressão Humidade
00:00 +14°C° 0 mm 1 m/s 752 mmHg 91%
01:00 +14°C° 0 mm 1 m/s 752 mmHg 93%
02:00 +14°C° 0 mm 1 m/s 752 mmHg 92%
03:00 +14°C° 0 mm 1 m/s 752 mmHg 92%
04:00 +13°C° 0 mm 0 m/s 752 mmHg 92%
05:00 +16°C° 0 mm 1 m/s 752 mmHg 84%
06:00 +18°C° 0 mm 1 m/s 752 mmHg 76%
07:00 +20°C° 0 mm 1 m/s 752 mmHg 68%
08:00 +20°C° 0 mm 2 m/s 752 mmHg 64%
09:00 +23°C° 0 mm 2 m/s 752 mmHg 59%
10:00 +24°C° 0 mm 2 m/s 752 mmHg 55%
11:00 +24°C° 0 mm 2 m/s 752 mmHg 54%
12:00 +25°C° 0 mm 3 m/s 752 mmHg 52%
13:00 +25°C° 0 mm 3 m/s 751 mmHg 51%
14:00 +25°C° 0 mm 3 m/s 751 mmHg 51%
15:00 +25°C° 0 mm 3 m/s 751 mmHg 52%
16:00 +25°C° 0 mm 3 m/s 751 mmHg 53%
17:00 +24°C° 0 mm 2 m/s 751 mmHg 60%
18:00 +21°C° 0 mm 2 m/s 751 mmHg 67%
19:00 +20°C° 0 mm 2 m/s 751 mmHg 74%
20:00 +19°C° 0 mm 2 m/s 751 mmHg 76%
21:00 +18°C° 0 mm 1 m/s 751 mmHg 78%
22:00 +16°C° 0 mm 1 m/s 751 mmHg 80%
23:00 +15°C° 0 mm 1 m/s 751 mmHg 81%

28 Junho, Segunda-feira

Tempo Temperatura Precipitação Vento Pressão Humidade
00:00 +14°C° 0 mm 0 m/s 752 mmHg 81%
01:00 +14°C° 0 mm 0 m/s 752 mmHg 81%
02:00 +14°C° 0 mm 0 m/s 752 mmHg 81%
03:00 +15°C° 0 mm 1 m/s 752 mmHg 81%
04:00 +15°C° 0 mm 1 m/s 752 mmHg 80%
05:00 +18°C° 0 mm 1 m/s 752 mmHg 75%
06:00 +20°C° 0 mm 1 m/s 752 mmHg 70%
07:00 +22°C° 0 mm 1 m/s 752 mmHg 65%
08:00 +23°C° 0 mm 2 m/s 752 mmHg 62%
09:00 +25°C° 0 mm 2 m/s 752 mmHg 58%
10:00 +26°C° 0 mm 2 m/s 752 mmHg 55%
11:00 +26°C° 0 mm 2 m/s 752 mmHg 53%
12:00 +27°C° 0 mm 3 m/s 752 mmHg 51%
13:00 +27°C° 0 mm 3 m/s 752 mmHg 50%
14:00 +27°C° 0 mm 3 m/s 752 mmHg 51%
15:00 +27°C° 0 mm 3 m/s 752 mmHg 52%
16:00 +27°C° 0 mm 3 m/s 752 mmHg 52%
17:00 +25°C° 0 mm 3 m/s 752 mmHg 60%
18:00 +24°C° 0 mm 2 m/s 752 mmHg 67%
19:00 +23°C° 0 mm 2 m/s 752 mmHg 74%
20:00 +21°C° 0 mm 1 m/s 752 mmHg 76%
21:00 +20°C° 0 mm 1 m/s 752 mmHg 79%
22:00 +18°C° 0 mm 1 m/s 752 mmHg 81%
23:00 +18°C° 0 mm 1 m/s 752 mmHg 81%

29 Junho, Terça-feira

Tempo Temperatura Precipitação Vento Pressão Humidade
00:00 +18°C° 0 mm 1 m/s 752 mmHg 81%
01:00 +16°C° 0 mm 1 m/s 752 mmHg 81%
02:00 +16°C° 0 mm 1 m/s 752 mmHg 81%
03:00 +16°C° 0 mm 1 m/s 752 mmHg 81%
04:00 +16°C° 0 mm 1 m/s 752 mmHg 80%
05:00 +19°C° 0 mm 1 m/s 752 mmHg 75%
06:00 +21°C° 0 mm 1 m/s 753 mmHg 69%
07:00 +23°C° 0 mm 1 m/s 753 mmHg 64%
08:00 +25°C° 0 mm 1 m/s 753 mmHg 60%
09:00 +26°C° 0 mm 1 m/s 753 mmHg 56%
10:00 +27°C° 0 mm 2 m/s 753 mmHg 52%
11:00 +28°C° 0 mm 1 m/s 752 mmHg 50%
12:00 +29°C° 0 mm 1 m/s 752 mmHg 48%
13:00 +29°C° 0 mm 1 m/s 752 mmHg 46%
14:00 +29°C° 0 mm 1 m/s 752 mmHg 48%
15:00 +29°C° 0 mm 1 m/s 752 mmHg 50%
16:00 +28°C° 0 mm 1 m/s 752 mmHg 52%
17:00 +27°C° 0.1 mm 1 m/s 752 mmHg 59%
18:00 +25°C° 0.1 mm 1 m/s 752 mmHg 65%
19:00 +24°C° 0.1 mm 1 m/s 752 mmHg 72%
20:00 +23°C° 0.1 mm 1 m/s 752 mmHg 73%
21:00 +22°C° 0.1 mm 1 m/s 752 mmHg 74%
22:00 +22°C° 0.1 mm 1 m/s 752 mmHg 76%
23:00 +21°C° 0.1 mm 1 m/s 752 mmHg 79%
Mostrar mais

Necessitamos do seu Consentimento

A Meteoprog e os seus Fornecedores de Serviços podem armazenar e aceder a dados pessoais como cookies, identificadores do dispositivo ou outras tecnologias semelhantes existentes no seu dispositivo e processar estes dados para personalizar conteúdos e anúncios, assim como funcionalidades nas redes sociais e análise de tráfego.

  • Armazenar e/ou aceder a informações no seu dispositivo

    Os cookies, identificadores do dispositivo ou outras informações podem ser armazenados ou acedidos no seu dispositivo, para os fins acima indicados.

  • Anúncios e conteúdos personalizados, medição de anúncios e conteúdos, dados sobre o público-alvo e desenvolvimento de produtos

    Os anúncios e os conteúdos podem ser personalizados com base num perfil. Podem ser adicionados dados adicionais para uma maior personalização dos anúncios e dos conteúdos. A eficácia dos anúncios e dos conteúdos pode ser medida. Podem ser obtidas informações sobre o público que visualizou os anúncios e os conteúdos. Estes dados podem ser usados para desenvolver ou melhorar sistemas, softwares ou a experiência do utilizador.

Ao clicar em "Eu concordo”, permitirá o uso de cookies, identificadores do dispositivo e web beacons mencionados ou outras tecnologias semelhantes. As configurações do navegador do seu dispositivo podem ser alteradas.

Para certos fins, podem ser invocados interesses legítimos ao invés de consentimento. Pode ler mais informação sobre este assunto na nossa Política de Privacidade e Cookies.